TAY3PU GMMN-LPPT

Flight info

Callsign TAY3PU
Flight time 1h 6m
Altitude 34000
Route LAKAM3D LAKAM UR722 AMSEL DCT VATZI VATZI2A
Aircraft B738/M-SDE2E3FGHIRWXY/LB1

Departure

Time 2026-05-07 18:18
Airport Mohammed V International Airport (GMMN)

Arrival

Time 2026-05-07 19:25
Airport Lisbon Humberto Delgado Airport (LPPT)
Time Latitude Longitude Altitude Speed Heading
2026-05-07 17:45 33.36169 -7.57963 653 ft 0 kts 75°
2026-05-07 17:55 33.36165 -7.57980 652 ft 4 kts 73°
2026-05-07 17:56 33.36159 -7.58012 652 ft 4 kts 80°
2026-05-07 17:56 33.36155 -7.58043 652 ft 4 kts 87°
2026-05-07 17:56 33.36154 -7.58062 652 ft 1 kts 91°
2026-05-07 17:58 33.36154 -7.58061 652 ft 0 kts 91°
2026-05-07 17:58 33.36150 -7.58049 653 ft 3 kts 126°
2026-05-07 17:59 33.36096 -7.58028 653 ft 14 kts 165°
2026-05-07 17:59 33.35979 -7.57991 652 ft 19 kts 165°
2026-05-07 17:59 33.35854 -7.57951 653 ft 18 kts 165°
2026-05-07 17:59 33.35736 -7.57913 653 ft 12 kts 165°
2026-05-07 18:00 33.35676 -7.57893 652 ft 8 kts 164°
2026-05-07 18:00 33.35624 -7.57905 652 ft 8 kts 224°
2026-05-07 18:00 33.35606 -7.57957 652 ft 0 kts 255°
2026-05-07 18:01 33.35606 -7.57958 652 ft 1 kts 254°
2026-05-07 18:02 33.35543 -7.58017 654 ft 15 kts 166°
2026-05-07 18:02 33.35430 -7.57977 651 ft 15 kts 164°
2026-05-07 18:02 33.35392 -7.57965 651 ft 0 kts 164°
2026-05-07 18:05 33.35391 -7.57964 651 ft 1 kts 164°
2026-05-07 18:06 33.35372 -7.57958 652 ft 5 kts 164°
2026-05-07 18:06 33.35342 -7.57948 652 ft 2 kts 168°
2026-05-07 18:06 33.35341 -7.57948 652 ft 0 kts 168°
2026-05-07 18:09 33.35338 -7.57947 654 ft 1 kts 168°
2026-05-07 18:09 33.35326 -7.57945 652 ft 2 kts 175°
2026-05-07 18:10 33.35303 -7.57947 652 ft 4 kts 189°
2026-05-07 18:10 33.35280 -7.57959 652 ft 4 kts 212°
2026-05-07 18:10 33.35274 -7.57966 653 ft 0 kts 228°
2026-05-07 18:11 33.35270 -7.57971 652 ft 2 kts 231°
2026-05-07 18:12 33.35262 -7.57987 652 ft 2 kts 239°
2026-05-07 18:12 33.35256 -7.58003 652 ft 2 kts 250°
2026-05-07 18:12 33.35251 -7.58020 652 ft 2 kts 252°
2026-05-07 18:12 33.35251 -7.58023 652 ft 0 kts 252°
2026-05-07 18:14 33.35250 -7.58025 652 ft 1 kts 252°
2026-05-07 18:14 33.35246 -7.58041 652 ft 3 kts 253°
2026-05-07 18:14 33.35239 -7.58068 652 ft 1 kts 254°
2026-05-07 18:16 33.35236 -7.58080 652 ft 4 kts 253°
2026-05-07 18:16 33.35225 -7.58128 652 ft 8 kts 254°
2026-05-07 18:16 33.35211 -7.58189 655 ft 8 kts 255°
2026-05-07 18:17 33.35211 -7.58249 653 ft 7 kts 304°
2026-05-07 18:17 33.35253 -7.58272 653 ft 3 kts 344°
2026-05-07 18:17 33.35255 -7.58273 653 ft 0 kts 344°
2026-05-07 18:17 33.35259 -7.58274 654 ft 3 kts 344°
2026-05-07 18:18 33.35413 -7.58328 649 ft 57 kts 343°
2026-05-07 18:18 33.36023 -7.58538 646 ft 123 kts 344°
2026-05-07 18:18 33.37001 -7.58873 811 ft 159 kts 343°
2026-05-07 18:18 33.38042 -7.59234 1581 ft 156 kts 343°
2026-05-07 18:19 33.39122 -7.59621 2195 ft 166 kts 343°
2026-05-07 18:19 33.40196 -7.60141 2852 ft 174 kts 332°
2026-05-07 18:19 33.41328 -7.60878 3271 ft 198 kts 329°
2026-05-07 18:19 33.42550 -7.61832 3511 ft 221 kts 323°
2026-05-07 18:20 33.43761 -7.63098 3873 ft 238 kts 313°
2026-05-07 18:20 33.44812 -7.64666 4550 ft 243 kts 304°
2026-05-07 18:20 33.45745 -7.66369 4882 ft 245 kts 302°
2026-05-07 18:20 33.46657 -7.68083 4930 ft 244 kts 302°
2026-05-07 18:21 33.47584 -7.69813 4934 ft 248 kts 302°
2026-05-07 18:21 33.48516 -7.71542 4929 ft 247 kts 302°
2026-05-07 18:21 33.49450 -7.73263 4932 ft 246 kts 302°
2026-05-07 18:21 33.50385 -7.74977 4944 ft 245 kts 302°
2026-05-07 18:22 33.51321 -7.76690 4945 ft 245 kts 302°
2026-05-07 18:22 33.51941 -7.77819 4938 ft 245 kts 302°
2026-05-07 18:22 33.53200 -7.80108 4940 ft 245 kts 302°
2026-05-07 18:22 33.54137 -7.81813 4955 ft 244 kts 302°
2026-05-07 18:23 33.55222 -7.83395 5000 ft 255 kts 325°
2026-05-07 18:23 33.56964 -7.84003 5445 ft 272 kts
2026-05-07 18:23 33.58859 -7.83731 6197 ft 277 kts
2026-05-07 18:23 33.60787 -7.83394 6932 ft 282 kts
2026-05-07 18:24 33.62759 -7.83044 7610 ft 289 kts
2026-05-07 18:24 33.64770 -7.82692 8291 ft 295 kts
2026-05-07 18:24 33.66815 -7.82341 9037 ft 299 kts
2026-05-07 18:24 33.68862 -7.81996 9729 ft 304 kts
2026-05-07 18:25 33.70986 -7.81643 10278 ft 316 kts
2026-05-07 18:25 33.73243 -7.81272 10449 ft 340 kts
2026-05-07 18:25 33.75662 -7.80877 10733 ft 358 kts
2026-05-07 18:25 33.78163 -7.80470 11298 ft 365 kts
2026-05-07 18:26 33.80705 -7.80055 11927 ft 371 kts
2026-05-07 18:26 33.83284 -7.79635 12555 ft 377 kts
2026-05-07 18:26 33.85895 -7.79209 13251 ft 380 kts
2026-05-07 18:26 33.88527 -7.78781 13951 ft 384 kts
2026-05-07 18:27 33.91189 -7.78348 14644 ft 388 kts
2026-05-07 18:27 33.93876 -7.77912 15335 ft 392 kts
2026-05-07 18:27 33.96591 -7.77470 16023 ft 396 kts
2026-05-07 18:27 33.98415 -7.77174 16474 ft 399 kts
2026-05-07 18:28 34.02124 -7.76566 17332 ft 404 kts
2026-05-07 18:28 34.04927 -7.76106 17954 ft 408 kts
2026-05-07 18:28 34.07748 -7.75642 18575 ft 412 kts
2026-05-07 18:28 34.10600 -7.75173 19167 ft 416 kts
2026-05-07 18:29 34.13446 -7.74706 19737 ft 420 kts
2026-05-07 18:29 34.16358 -7.74230 20327 ft 423 kts
2026-05-07 18:29 34.19293 -7.73839 20871 ft 424 kts 357°
2026-05-07 18:29 34.22234 -7.73913 21387 ft 424 kts 351°
2026-05-07 18:30 34.25187 -7.74143 21915 ft 426 kts 350°
2026-05-07 18:30 34.28152 -7.74402 22440 ft 429 kts 350°
2026-05-07 18:30 34.31144 -7.74659 22918 ft 433 kts 350°
2026-05-07 18:30 34.34161 -7.74902 23390 ft 436 kts 350°
2026-05-07 18:31 34.37203 -7.75130 23866 ft 439 kts 350°
2026-05-07 18:31 34.40261 -7.75350 24290 ft 443 kts 351°
2026-05-07 18:31 34.43353 -7.75565 24756 ft 445 kts 351°
2026-05-07 18:31 34.46452 -7.75778 25232 ft 447 kts 351°
2026-05-07 18:32 34.49519 -7.75989 25685 ft 448 kts 351°
2026-05-07 18:32 34.52639 -7.76205 26121 ft 450 kts 351°
2026-05-07 18:32 34.55771 -7.76421 26542 ft 452 kts 350°
2026-05-07 18:32 34.58937 -7.76640 26936 ft 454 kts 350°
2026-05-07 18:33 34.62116 -7.76861 27332 ft 457 kts 351°
2026-05-07 18:33 34.65290 -7.77080 27709 ft 458 kts 351°
2026-05-07 18:33 34.68486 -7.77301 28076 ft 460 kts 350°
2026-05-07 18:33 34.71690 -7.77525 28428 ft 462 kts 350°
2026-05-07 18:34 34.74914 -7.77752 28766 ft 464 kts 350°
2026-05-07 18:34 34.78100 -7.78000 29101 ft 465 kts 349°
2026-05-07 18:34 34.81339 -7.78275 29444 ft 467 kts 349°
2026-05-07 18:34 34.84579 -7.78557 29759 ft 468 kts 349°
2026-05-07 18:35 34.87834 -7.78839 30137 ft 468 kts 349°
2026-05-07 18:35 34.91079 -7.79115 30569 ft 467 kts 349°
2026-05-07 18:35 34.94304 -7.79385 31066 ft 463 kts 349°
2026-05-07 18:35 34.97503 -7.79651 31558 ft 459 kts 349°
2026-05-07 18:36 35.00686 -7.79916 31946 ft 458 kts 349°
2026-05-07 18:36 35.03870 -7.80183 32279 ft 458 kts 349°
2026-05-07 18:36 35.07051 -7.80451 32647 ft 457 kts 349°
2026-05-07 18:36 35.10215 -7.80716 33055 ft 454 kts 349°
2026-05-07 18:37 35.13363 -7.80980 33439 ft 452 kts 348°
2026-05-07 18:37 35.16495 -7.81242 33780 ft 451 kts 348°
2026-05-07 18:37 35.19630 -7.81507 33928 ft 454 kts 348°
2026-05-07 18:38 35.25978 -7.82046 33933 ft 465 kts 348°
2026-05-07 18:38 35.32501 -7.82595 33935 ft 474 kts 348°
2026-05-07 18:39 35.39124 -7.83150 33933 ft 479 kts 348°
2026-05-07 18:39 35.45755 -7.83722 33927 ft 481 kts 348°
2026-05-07 18:40 35.52439 -7.84335 33926 ft 482 kts 348°
2026-05-07 18:40 35.59140 -7.84947 33926 ft 482 kts 348°
2026-05-07 18:41 35.65827 -7.85550 33923 ft 482 kts 348°
2026-05-07 18:41 35.72513 -7.86153 33926 ft 481 kts 348°
2026-05-07 18:42 35.79189 -7.86755 33925 ft 481 kts 348°
2026-05-07 18:42 35.84742 -7.87257 33925 ft 481 kts 348°
2026-05-07 18:43 35.91420 -7.87879 33924 ft 479 kts 346°
2026-05-07 18:43 35.94653 -7.88656 33923 ft 468 kts 336°
2026-05-07 18:43 35.97665 -7.90046 33927 ft 458 kts 327°
2026-05-07 18:44 36.03404 -7.93454 33923 ft 458 kts 326°
2026-05-07 18:44 36.09149 -7.96875 33925 ft 458 kts 327°
2026-05-07 18:45 36.14906 -8.00254 33918 ft 458 kts 327°
2026-05-07 18:45 36.20634 -8.03593 33917 ft 458 kts 327°
2026-05-07 18:46 36.26397 -8.06950 33916 ft 458 kts 327°
2026-05-07 18:46 36.32166 -8.10318 33918 ft 458 kts 327°
2026-05-07 18:47 36.37938 -8.13695 33917 ft 458 kts 327°
2026-05-07 18:47 36.43707 -8.17077 33918 ft 458 kts 327°
2026-05-07 18:48 36.49487 -8.20470 33917 ft 459 kts 327°
2026-05-07 18:48 36.55264 -8.23868 33918 ft 459 kts 327°
2026-05-07 18:49 36.61047 -8.27274 33914 ft 460 kts 327°
2026-05-07 18:49 36.66793 -8.30664 33917 ft 460 kts 327°
2026-05-07 18:50 36.72578 -8.34082 33917 ft 461 kts 327°
2026-05-07 18:50 36.78376 -8.37514 33919 ft 461 kts 327°
2026-05-07 18:51 36.84220 -8.40979 33916 ft 462 kts 327°
2026-05-07 18:51 36.87123 -8.42704 33774 ft 464 kts 327°
2026-05-07 18:51 36.90040 -8.44438 33516 ft 464 kts 327°
2026-05-07 18:51 36.92921 -8.46150 33272 ft 464 kts 327°
2026-05-07 18:52 36.95834 -8.47884 33028 ft 466 kts 327°
2026-05-07 18:52 36.98771 -8.49635 32698 ft 468 kts 327°
2026-05-07 18:52 37.01718 -8.51394 32321 ft 471 kts 327°
2026-05-07 18:52 37.04680 -8.53163 31921 ft 473 kts 328°
2026-05-07 18:53 37.07660 -8.54942 31532 ft 474 kts 328°
2026-05-07 18:53 37.10633 -8.56718 31132 ft 474 kts 328°
2026-05-07 18:53 37.13615 -8.58502 30741 ft 475 kts 328°
2026-05-07 18:53 37.16590 -8.60282 30304 ft 470 kts 328°
2026-05-07 18:54 37.19526 -8.62038 29498 ft 467 kts 328°
2026-05-07 18:54 37.22472 -8.63806 28485 ft 470 kts 328°
2026-05-07 18:54 37.25447 -8.65596 27287 ft 477 kts 329°
2026-05-07 18:54 37.28453 -8.67408 26004 ft 483 kts 329°
2026-05-07 18:55 37.31490 -8.69236 25257 ft 480 kts 329°
2026-05-07 18:55 37.34507 -8.71049 25109 ft 482 kts 330°
2026-05-07 18:55 37.37539 -8.72874 24977 ft 485 kts 330°
2026-05-07 18:55 37.40591 -8.74713 24910 ft 487 kts 330°
2026-05-07 18:56 37.43614 -8.76533 24641 ft 474 kts 330°
2026-05-07 18:56 37.46564 -8.78310 23880 ft 468 kts 330°
2026-05-07 18:56 37.49498 -8.80084 22883 ft 468 kts 330°
2026-05-07 18:56 37.52435 -8.81863 21920 ft 468 kts 330°
2026-05-07 18:57 37.55357 -8.83631 21099 ft 463 kts 330°
2026-05-07 18:57 37.58241 -8.85379 20350 ft 456 kts 330°
2026-05-07 18:57 37.61114 -8.87036 19566 ft 454 kts 335°
2026-05-07 18:57 37.64080 -8.88366 18784 ft 451 kts 339°
2026-05-07 18:58 37.67029 -8.89510 18021 ft 447 kts 340°
2026-05-07 18:58 37.70001 -8.90620 17272 ft 443 kts 340°
2026-05-07 18:58 37.72924 -8.91726 16888 ft 432 kts 340°
2026-05-07 18:58 37.75722 -8.92798 16788 ft 409 kts 340°
2026-05-07 18:59 37.78388 -8.93848 16674 ft 392 kts 339°
2026-05-07 18:59 37.80931 -8.94890 16579 ft 377 kts 339°
2026-05-07 18:59 37.83380 -8.95897 16488 ft 363 kts 339°
2026-05-07 18:59 37.85752 -8.96872 16404 ft 351 kts 339°
2026-05-07 19:00 37.88031 -8.97803 16321 ft 338 kts 339°
2026-05-07 19:00 37.90246 -8.98707 16157 ft 331 kts 339°
2026-05-07 19:00 37.92429 -8.99602 15847 ft 328 kts 339°
2026-05-07 19:00 37.94606 -9.00495 15468 ft 328 kts 339°
2026-05-07 19:01 37.96750 -9.01374 15117 ft 327 kts 339°
2026-05-07 19:01 37.98910 -9.02262 14796 ft 325 kts 339°
2026-05-07 19:01 38.01061 -9.03150 14442 ft 324 kts 339°
2026-05-07 19:01 38.03191 -9.04050 14126 ft 321 kts 339°
2026-05-07 19:02 38.05306 -9.04947 13766 ft 321 kts 340°
2026-05-07 19:02 38.07427 -9.05838 13494 ft 319 kts 340°
2026-05-07 19:02 38.09523 -9.06723 13235 ft 316 kts 340°
2026-05-07 19:02 38.11608 -9.07607 12989 ft 316 kts 340°
2026-05-07 19:03 38.13695 -9.08493 12741 ft 316 kts 340°
2026-05-07 19:03 38.15819 -9.09216 12468 ft 318 kts 355°
2026-05-07 19:03 38.17990 -9.08852 12215 ft 316 kts 22°
2026-05-07 19:03 38.19850 -9.07439 11968 ft 311 kts 45°
2026-05-07 19:04 38.21308 -9.05452 11741 ft 302 kts 51°
2026-05-07 19:04 38.22665 -9.03440 11477 ft 296 kts 51°
2026-05-07 19:04 38.23977 -9.01491 11347 ft 283 kts 51°
2026-05-07 19:04 38.25219 -8.99659 11217 ft 272 kts 51°
2026-05-07 19:05 38.26448 -8.97862 10925 ft 268 kts 50°
2026-05-07 19:05 38.27699 -8.96106 10586 ft 266 kts 49°
2026-05-07 19:05 38.28950 -8.94372 10229 ft 267 kts 49°
2026-05-07 19:05 38.30202 -8.92636 10001 ft 264 kts 49°
2026-05-07 19:06 38.31444 -8.90909 9744 ft 263 kts 49°
2026-05-07 19:06 38.33904 -8.87475 9206 ft 261 kts 49°
2026-05-07 19:06 38.35124 -8.85763 8960 ft 260 kts 49°
2026-05-07 19:07 38.36333 -8.84059 8691 ft 259 kts 49°
2026-05-07 19:07 38.37537 -8.82355 8409 ft 259 kts 49°
2026-05-07 19:07 38.38718 -8.80634 8140 ft 257 kts 56°
2026-05-07 19:07 38.39373 -8.78548 7846 ft 254 kts 86°
2026-05-07 19:08 38.39115 -8.76378 7583 ft 248 kts 118°
2026-05-07 19:08 38.38063 -8.74691 7266 ft 242 kts 146°
2026-05-07 19:08 38.36515 -8.73928 6960 ft 242 kts 180°
2026-05-07 19:08 38.34899 -8.74361 6948 ft 239 kts 208°
2026-05-07 19:09 38.33591 -8.75635 6898 ft 237 kts 231°
2026-05-07 19:09 38.32935 -8.77492 6899 ft 235 kts 262°
2026-05-07 19:09 38.33152 -8.79537 6896 ft 239 kts 293°
2026-05-07 19:09 38.34179 -8.81218 6920 ft 246 kts 316°
2026-05-07 19:10 38.35493 -8.82647 6918 ft 249 kts 317°
2026-05-07 19:10 38.36491 -8.84377 6896 ft 240 kts 285°
2026-05-07 19:10 38.36918 -8.86418 6902 ft 239 kts 283°
2026-05-07 19:10 38.37384 -8.88442 6914 ft 238 kts 285°
2026-05-07 19:11 38.37896 -8.90454 6906 ft 239 kts 286°
2026-05-07 19:11 38.38432 -8.92458 6899 ft 239 kts 287°
2026-05-07 19:11 38.38981 -8.94465 6916 ft 240 kts 287°
2026-05-07 19:11 38.39535 -8.96477 6903 ft 241 kts 287°
2026-05-07 19:12 38.40038 -8.98508 6896 ft 240 kts 276°
2026-05-07 19:12 38.39825 -9.00564 6929 ft 234 kts 246°
2026-05-07 19:12 38.39028 -9.02378 6910 ft 235 kts 235°
2026-05-07 19:12 38.38105 -9.04109 6919 ft 237 kts 235°
2026-05-07 19:13 38.37192 -9.05823 6902 ft 237 kts 235°
2026-05-07 19:13 38.36269 -9.07570 6913 ft 238 kts 236°
2026-05-07 19:13 38.35336 -9.09350 6916 ft 239 kts 236°
2026-05-07 19:13 38.34537 -9.11202 6892 ft 240 kts 253°
2026-05-07 19:14 38.34211 -9.13281 6922 ft 240 kts 258°
2026-05-07 19:14 38.33915 -9.15347 6915 ft 240 kts 258°
2026-05-07 19:14 38.33605 -9.17435 6920 ft 240 kts 258°
2026-05-07 19:14 38.33288 -9.19524 6928 ft 240 kts 258°
2026-05-07 19:15 38.32969 -9.21614 6923 ft 240 kts 258°
2026-05-07 19:15 38.32702 -9.23709 6923 ft 240 kts 268°
2026-05-07 19:15 38.32963 -9.25812 6936 ft 240 kts 281°
2026-05-07 19:15 38.33323 -9.27892 6929 ft 240 kts 280°
2026-05-07 19:16 38.33665 -9.29974 6925 ft 240 kts 279°
2026-05-07 19:16 38.33998 -9.32055 6933 ft 239 kts 279°
2026-05-07 19:16 38.34330 -9.34137 6933 ft 240 kts 279°
2026-05-07 19:16 38.34742 -9.36193 6917 ft 242 kts 294°
2026-05-07 19:17 38.35829 -9.37808 6934 ft 244 kts 325°
2026-05-07 19:17 38.37421 -9.38540 6929 ft 248 kts 355°
2026-05-07 19:17 38.39122 -9.38236 6936 ft 250 kts 21°
2026-05-07 19:17 38.40699 -9.37221 6701 ft 260 kts 28°
2026-05-07 19:18 38.42291 -9.36059 6299 ft 267 kts 30°
2026-05-07 19:18 38.43912 -9.34856 5908 ft 271 kts 29°
2026-05-07 19:18 38.45542 -9.33653 5625 ft 270 kts 29°
2026-05-07 19:18 38.47148 -9.32475 5362 ft 268 kts 28°
2026-05-07 19:19 38.48766 -9.31299 5111 ft 266 kts 28°
2026-05-07 19:19 38.50367 -9.30149 4880 ft 262 kts 27°
2026-05-07 19:19 38.51928 -9.29030 4816 ft 251 kts 27°
2026-05-07 19:19 38.53408 -9.27963 4711 ft 237 kts 28°
2026-05-07 19:20 38.54798 -9.26942 4609 ft 223 kts 28°
2026-05-07 19:20 38.56103 -9.25990 4471 ft 210 kts 27°
2026-05-07 19:20 38.57350 -9.25099 4307 ft 203 kts 27°
2026-05-07 19:20 38.58575 -9.24232 4096 ft 200 kts 25°
2026-05-07 19:21 38.59822 -9.23473 3867 ft 198 kts 21°
2026-05-07 19:21 38.61082 -9.22763 3622 ft 197 kts 20°
2026-05-07 19:21 38.62343 -9.22072 3365 ft 197 kts 20°
2026-05-07 19:21 38.63609 -9.21389 3109 ft 197 kts 20°
2026-05-07 19:22 38.64880 -9.20705 2828 ft 198 kts 19°
2026-05-07 19:22 38.66127 -9.20038 2604 ft 194 kts 19°
2026-05-07 19:22 38.67346 -9.19398 2334 ft 186 kts 19°
2026-05-07 19:22 38.68504 -9.18760 2074 ft 179 kts 20°
2026-05-07 19:23 38.69640 -9.18116 1794 ft 172 kts 19°
2026-05-07 19:23 38.70704 -9.17540 1646 ft 164 kts 18°
2026-05-07 19:23 38.71713 -9.17009 1530 ft 151 kts 18°
2026-05-07 19:23 38.72667 -9.16510 1303 ft 147 kts 17°
2026-05-07 19:24 38.73617 -9.16008 1068 ft 148 kts 19°
2026-05-07 19:24 38.74555 -9.15495 815 ft 146 kts 19°
2026-05-07 19:24 38.75482 -9.15007 624 ft 145 kts 17°
2026-05-07 19:24 38.76431 -9.14502 412 ft 150 kts 19°
2026-05-07 19:25 38.77377 -9.13999 360 ft 136 kts 23°
2026-05-07 19:25 38.78050 -9.13637 364 ft 73 kts 22°
2026-05-07 19:25 38.78318 -9.13422 363 ft 33 kts 46°
2026-05-07 19:25 38.78374 -9.13300 360 ft 7 kts 106°
2026-05-07 19:26 38.78328 -9.13268 362 ft 9 kts 183°
2026-05-07 19:26 38.78287 -9.13282 359 ft 9 kts 200°
2026-05-07 19:26 38.78211 -9.13322 357 ft 9 kts 201°
2026-05-07 19:26 38.78187 -9.13334 357 ft 0 kts 202°
2026-05-07 19:27 38.78185 -9.13335 357 ft 1 kts 202°
2026-05-07 19:28 38.78170 -9.13343 362 ft 8 kts 202°
2026-05-07 19:28 38.78037 -9.13409 356 ft 19 kts 190°
2026-05-07 19:28 38.77901 -9.13383 349 ft 19 kts 168°
2026-05-07 19:28 38.77776 -9.13350 344 ft 16 kts 168°
2026-05-07 19:29 38.77741 -9.13273 337 ft 18 kts 84°
2026-05-07 19:29 38.77761 -9.13140 336 ft 8 kts 78°
2026-05-07 19:29 38.77772 -9.13079 336 ft 7 kts 77°
2026-05-07 19:29 38.77817 -9.12991 327 ft 16 kts 36°
2026-05-07 19:30 38.77898 -9.12923 330 ft 13 kts 33°
2026-05-07 19:30 38.77964 -9.12924 329 ft 11 kts 309°
2026-05-07 19:30 38.77979 -9.12954 330 ft 1 kts 303°
2026-05-07 19:30 38.77980 -9.12955 330 ft 0 kts 303°